Back to catalog

DELTA 1 DEB

AlivePO
NORAD 21504·DEBRIS·🇺🇸 United States

Launched Jun 12, 1975 from Vandenberg Space Force Base

Loading…

Next Passes (next 24 hours)

TLE

FreshSource: Space-Track

Epoch: Sep 14, 2026, 05:20 UTC

1 21504U 75052FZ  26257.22224506  .00000102  00000-0  53351-3 0  9999
2 21504  99.8267 171.0316 0547322 342.6191 171.9725 12.48694548606121

Track DELTA 1 DEB in real time with AllMySat

Download on the App Store